SL-14 DEB, 47089

Orbit data source: Space-Track

SL-14 DEB, 47089 is space debris in LEO originally from a launch on Thu, 15 Aug 1991 UTC launched from the Plesetsk Missile And Space Complex (PKMTR). Debris objects in space refer to the collection of defunct objects orbiting the Earth. Examples of debris include non-operational satellites, rocket bodies, and fragments generated from explosions, collisions, or faulty payload assembly.

Loading next visibility...
Identifier
47089, 1991-056DP
Orbit
LEO
Country
Flag of CISCIS
Related business
Manufacturer
Unknown
Mission
Spacecraft
Bus & Motor
Unknown
Mass
Unknown
Launch date (UTC)
1991-08-15 (34 years ago)
Launch vehicle
Unknown
Launch site
Plesetsk Missile And Space Complex (PKMTR)
Object type
Payload
Rocket body
Debris
Shape & HBR
Unknown
Radar Cross Section
Small (<0.1 m²)

Expand to show TLE details & history
Last TLE update: 20 hours ago

TLE from 20 hours ago
0 SL-14 DEB
1 47089U 91056DP  25257.80080956  .00000060  00000-0  82363-4 0  9998
2 47089  82.5978 287.5690 0185816 231.8547 126.5717 13.38353185237545
Epoch: 2025-09-14T19:13Z
TLE epoch observation values (Epoch: 2025-09-14T19:13:09.945Z)
Latitude
-0.00012°
Longitude
5.26294°
Altitude
1,202.88 km
Speed
7.212 km/s
True Right ascension
19h 10m 16s
True Declination
0° 00' 00"
Sunlit
Object was in daylight at epoch
Visualization orbit readout
Latitude
Unknown
Longitude
Unknown
Altitude
Unknown
Speed
Unknown
Apparent Right ascension
Unknown
Apparent Declination
Unknown
Sunlit
N/A
Visualization observer readout
Local Sidereal Time
07:31:05
Azimuth
Unknown
Elevation
Unknown
Doppler factor
Unknown
Orbital elements
Apogee altitude
1,251.822 km
Perigee altitude
973.441 km
Semi-major axis
7,490.769 km
Eccentricity
0.01858
Inclination
82.5978°
RAAN
287.569°
Arg. of periapsis
231.8547°
True anomaly
128.25816°
Mean anomaly
126.5717°
Eccentric anomaly
127.41728°
Mean motion
3.34775 °/min
Orbital period
107.53 mins
BSTAR
0.000082363
Loading maneuver chart data...
Computing Atmospheric mass density...
Loading historical data...
Loading historical data...
Loading historical data...
Loading historical data...
Loading historical data...
Loading historical data...
Loading historical data...

Documentation

Showing up to 5 results
|